FENGYUN 1C DEB, 35159

Orbit data source: Space-Track

FENGYUN 1C DEB, 35159 is space debris in SSO originally from a launch on Mon, 10 May 1999 UTC launched from the Taiyaun Space Center, China (TSC). Fengyun 1C debris stems from the Chinese weather satellite Fengyun-1C, which was intentionally destroyed by a Chinese anti-satellite missile in 2007. This event dramatically increased the amount of space debris, with thousands of trackable fragments posing hazards to satellites and human spaceflight. The Fengyun 1C debris cloud has become a focal point in discussions about space sustainability and the need for international regulations to prevent the creation of new debris.

Loading next visibility...
Identifier
35159, 1999-025DMP
Orbit
SSO
Country
Flag of CNCN / PRC
Related business
Manufacturer
Unknown
Mission
Spacecraft
Bus & Motor
Unknown
Mass
Unknown
Launch date (UTC)
1999-05-10 (27 years ago)
Launch vehicle
Unknown
Launch site
Taiyaun Space Center, China (TSC)
Object type
Payload
Rocket body
Debris
Shape & HBR
Unknown shape, 0.1 m
Radar Cross Section
Small (<0.1 m²)

Expand to show TLE details & history
Last TLE update: 2 days ago

TLE from 2 days ago
0 FENGYUN 1C DEB
1 35159U 99025DMP 26120.18993214  .00006110  00000-0  16787-2 0  9995
2 35159  98.8309 206.1977 0013259 117.8057 272.5286 14.47322779634824
Epoch: 2026-04-30T04:33Z
TLE epoch observation values (Epoch: 2026-04-30T04:33:30.136Z)
Latitude
29.84012°
Longitude
-85.40354°
Altitude
737.75 km
Speed
7.489 km/s
True Right ascension
13h 24m 26s
True Declination
29° 41' 29"
Sunlit
Object was in full shadow at epoch
Visualization orbit readout
Latitude
Unknown
Longitude
Unknown
Altitude
Unknown
Speed
Unknown
Apparent Right ascension
Unknown
Apparent Declination
Unknown
Sunlit
N/A
Visualization observer readout
Local Sidereal Time
00:37:06
Azimuth
Unknown
Elevation
Unknown
Doppler factor
Unknown
Orbital elements
Apogee altitude
740.961 km
Perigee altitude
722.107 km
Semi-major axis
7,109.671 km
Eccentricity
0.00133
Inclination
98.8309°
RAAN
206.1977°
Arg. of periapsis
117.8057°
True anomaly
272.3768°
Mean anomaly
272.5286°
Eccentric anomaly
272.4527°
Mean motion
3.6205 °/min
Orbital period
99.43 mins
BSTAR
0.0016787
Loading maneuver chart data...
Computing Atmospheric mass density...

Documentation

Showing up to 5 results
|